Content
SEND FEEDBACK

Daily
Averages
Monthly
Summary
United States of America

NEW YORK - CENTRAL PARK, NEW YORK


Home > North America > United States > New York
Elevation: 14 feet     Latitude: 40 47N     Longitude: 073 58W

WEATHER
 
SELECT A DAY
Number of Records: 148,039;   Date Range: 11/1/95 - 7/23/14
 
SHARE

PRINT THIS DATA

[ ← Previous Day ]
WEATHER ALMANAC - MAY 17, 2013
[ Next Day → ]
[ °C ]   °F
Weather ElementAverageHighLow
Temperature65.2 °F72 °F (2:51 pm)59 °F (6:51 am)
Dewpoint39 °F41 °F (7:51 am)34 °F (2:51 am)
Humidity38.7 %51 % (7:51 am)29 % (2:51 pm)
Barometer30.06 in30.20 in (11:51 pm)29.87 in (1:51 am)
Wind Speed3.7 mph10.4 mph (8:51 pm)
Weather ElementAverage
Visibility10 mi
Wind DirectionENE (53 °)

Weather ElementTotal
Precipitation---
Cooling Degree Days0.5 (Base 65)
Growing Degree Days15.5 (Base 50)
Averaged from 23 records on May 17, 2013
WEATHER CONDITIONS BREAKOUT
WIND DIRECTION BREAKOUT
WEATHER BY HOUR - MAY 17, 2013
[ °C ]   °F
Local TimeTemperatureDewpointHumidityBarometerVisibilityWind DirectionWind SpeedGust SpeedPrecipitationEventsConditions
1:51 AM68.0 °F37.9 °F33 %29.87 in10.0 miCalmClear
2:51 AM64.9 °F34.0 °F32 %29.90 in10.0 miVariable5.8 mphClear
3:51 AM63.0 °F37.0 °F38 %29.93 in10.0 miVariable5.8 mphClear
4:51 AM61.0 °F37.0 °F41 %29.95 in10.0 miWNW (300°)4.6 mphClear
5:51 AM60.1 °F39.0 °F46 %29.98 in10.0 miVariable4.6 mphClear
6:51 AM59.0 °F39.9 °F49 %30.01 in10.0 miCalmClear
7:51 AM59.0 °F41.0 °F51 %30.04 in10.0 miCalmClear
8:51 AM62.1 °F39.9 °F44 %30.05 in10.0 miVariable5.8 mphClear
9:51 AM61.0 °F39.9 °F46 %30.06 in10.0 miCalmClear
10:51 AM63.0 °F39.9 °F43 %30.08 in10.0 miNorthClear
11:51 AM64.9 °F39.9 °F40 %30.08 in10.0 miVariable5.8 mphClear
12:51 PM64.9 °F39.0 °F39 %30.09 in10.0 miWNW (300°)6.9 mphClear
1:51 PM68.0 °F39.0 °F35 %30.09 in10.0 miVariable4.6 mphClear
2:51 PM72.0 °F37.9 °F29 %30.09 in10.0 miNorth (360°)8.1 mphClear
3:51 PM71.1 °F39.0 °F31 %30.08 in10.0 miVariable4.6 mphClear
4:51 PM72.0 °F37.9 °F29 %30.08 in10.0 miVariable3.5 mphClear
5:51 PM71.1 °F39.0 °F31 %30.08 in10.0 miCalmClear
6:51 PM71.1 °F39.9 °F32 %30.09 in10.0 miENE (60°)3.5 mphClear
7:51 PM66.9 °F41.0 °F39 %30.12 in10.0 miCalmClear
8:51 PM66.9 °F39.9 °F37 %30.16 in10.0 miENE (70°)10.4 mphClear
9:51 PM64.9 °F39.9 °F40 %30.18 in10.0 miVariable3.5 mphClear
10:51 PM63.0 °F39.9 °F43 %30.19 in10.0 miCalmClear
11:51 PM62.1 °F39.0 °F43 %30.20 in10.0 miSE (130°)4.6 mphClear
Hourly data recorded from KNYC, located miles away from New York - Central Park, New York







STORIES FROM OUR PARTNERS